Regional Weather Roundup
Issued by NWS Upton, NY

Home | Current Version | Previous Version | Text Only | Print | Product List | Glossary On
Versions: 1 2 3 4 5 6 7 8 9 10 11 12 13 14 15 16 17 18 19 20 21 22 23 24 25 26 27 28
000
ASUS41 KOKX 012108
RWROKX

REGIONAL WEATHER ROUNDUP
NATIONAL WEATHER SERVICE NEW YORK NY
400 PM EST WED MAR 01 2017

NOTE: "FAIR" INDICATES FEW OR NO CLOUDS BELOW 12,000 FEET WITH NO
SIGNIFICANT WEATHER AND/OR OBSTRUCTIONS TO VISIBILITY.

NYZ071-072-176-178-NJZ106-104-012200-
NEW YORK CITY METRO AREA

CITY           SKY/WX    TMP DP  RH WIND       PRES   REMARKS
Central Park   CLOUDY    64  57  78 VRB3      29.52F
Wall St Helipt CLOUDY    64  57  77 W13       29.50F
LaGuardia APRT CLOUDY    66  55  67 VRB5      29.49F
Kennedy INTL   CLOUDY    54  52  93 S16       29.52F
Breezy Point     N/A     63 N/A N/A SW12G18     N/A
Newark/Liberty LGT RAIN  71  60  68 SW17G29   29.47F
Teterboro      RAIN      70  61  73 S12G20    29.48F FOG
$$

NYZ177-179-078>081-012200-
LONG ISLAND NEW YORK

CITY           SKY/WX    TMP DP  RH WIND       PRES   REMARKS
Jones Beach      N/A     50 N/A N/A SW17G26     N/A
Matinecock PT  NOT AVBL
Farmingdale    PTSUNNY   55  52  89 SW10      29.53F
MacArthur/ISP  CLOUDY    54  53  97 SW17G26   29.53F FOG
Shirley        FOG       52  52 100 SW15G26   29.55S VSB 1
Westhampton    FOG       51  50  96 SW15G26   29.56S VSB 1/4
Southampton      N/A     50  50 100 W13       29.52F
Bridgehampton  NOT AVBL
East Hampton   FOG       51  51  99 SW14G26   29.54F VSB 1/4
Montauk          N/A     52  52 100 S17G28    29.54F
$$

NYZ052-065-067-012200-
HUDSON VALLEY

CITY           SKY/WX    TMP DP  RH WIND       PRES   REMARKS
White Plains   LGT RAIN  59  56  89 S7        29.49F
Newburgh       NOT AVBL
Montgomery     CLOUDY    64  57  78 SW16G24   29.41F
Poughkeepsie   CLOUDY    63  55  75 SW10      29.43F
Albany         CLOUDY    64  53  67 S18G25    29.34F
$$

NJZ001-105-106-008-010-013-015-019>022-104-012200-
NEW JERSEY

CITY           SKY/WX    TMP DP  RH WIND       PRES   REMARKS
Newark/Liberty LGT RAIN  71  60  68 SW17G29   29.47F
Teterboro      RAIN      70  61  73 S12G20    29.48F FOG
Caldwell       LGT RAIN  66  61  84 CALM      29.45F
Somerville     CLOUDY    69  60  73 VRB5      29.44F
Linden         NOT AVBL
Sussex         CLOUDY    61  59  93 S5        29.43F
Andover          N/A     62  59  90 SW7       29.44F
Trenton        CLOUDY    70  61  73 S15G26    29.46F
Millville      CLOUDY    65  59  81 SW12G22   29.60F
Atlantic City  LGT RAIN  61  55  81 S15G24    29.58F
Wrightstown    LGT RAIN  68  61  77 SW17G31   29.47F
Toms River     RAIN      67  63  87 SW18      29.57S
Belmar         CLOUDY    71  61  70 SW14G31   29.54F
$$

PAZ047>061-062-071-012200-
EASTERN PENNSYLVANIA

CITY           SKY/WX    TMP DP  RH WIND       PRES   REMARKS
Philadelphia   CLOUDY    68  61  78 SW14      29.52F
Allentown      PTSUNNY   65  59  81 SW13      29.47F
Scranton       CLOUDY    63  55  75 SW18G25   29.43R
$$

CTZ002-004>006-009-010-012-RIZ004-006-007-MAZ004-011-015-012200-
SOUTHERN NEW ENGLAND
 IN CT

CITY           SKY/WX    TMP DP  RH WIND       PRES   REMARKS
Bradley INTL   CLOUDY    61  57  87 S12       29.46F
Hartford       CLOUDY    58  55  90 S14G21    29.48F
Danbury        CLOUDY    62  57  83 SW6       29.49F
Wtrbury/Oxford CLOUDY    55  52  88 SW7       29.52F FOG
Bridgeport     CLOUDY    53  51  93 SW5       29.52S FOG
Meriden        FOG       54  52  93 S9        29.50F VSB 1/4
New Haven      FOG       52  52 100 S3        29.51F VSB 1/2
Chester        FOG       52  52 100 SW6       29.51F VSB<1/4
Groton         FOG       50  49  96 SW14G20   29.51F VSB 1/4
Wilimantic     CLOUDY    58  56  93 SW8       29.50F

 IN RI

CITY           SKY/WX    TMP DP  RH WIND       PRES   REMARKS
Providence     CLOUDY    55  53  93 SW10      29.50F FOG
Block Island   NOT AVBL
Westerly       FOG       51  48  89 SW9       29.53F VSB 1/4
 IN MA

CITY           SKY/WX    TMP DP  RH WIND       PRES   REMARKS
Boston         CLOUDY    59  54  83 S14       29.43F
Worcester      LGT RAIN  58  53  84 SW23G32   29.43F
Westfield      CLOUDY    60  56  86 S12       29.44F
Provincetown   FOG       50  49  96 SW32G39   29.50S VSB 3/4
Nantucket      LGT RAIN  48  47  96 SW17G26   29.58F VSB<1/4
$$

ANZ330-335-338-340-345-350-353-355-012200-
COASTAL MARINE OBSERVATIONS


STATION/POSITION TIME  SKY/WX   TEMP    WIND        PRES    VSBY  WAVE
                                AIR SEA DIR/SP/G                  HT/PER
                 (UTC)          (F)     (DEG/KT/KT) (MB)    (MI)  (FT/S)
NY HARB ENTRANCE 2050            49 44  200/ 21/ 23 1000.1          6/ 7
20 S FIRE ISLAND 2050            50 42  210/ 25/ 29 1000.0          7/ 7
GREAT SOUTH BAY  NOT AVBL
23 SSW MONTAUK P 1950            51 46              1002.0          6/ 8
15 E BARNEGAT LI 2030               44                N/A           8/ 8
HUDSON CANYON    1950            55 47  200/ 19/ 23 1004.1          8/ 8
KINGS POINT      2048            56 42               998.8
EXECUTION ROCKS  NOT AVBL
CENTRAL LI SOUND 2030            47     200/ 10/ 12   N/A           1/ 2
EASTERN LI SOUND NOT AVBL
ROBBINS REEF     2048            72     230/ 25/ 35  999.0
$$


>>>>>>>>>>>>>>>>>>>>>>>>>>>> KEY <<<<<<<<<<<<<<<<<<<<<<<<<<<
>                                                          <
>     SKY/WX - Sky Condition/Present Weather               <
>     TMP    - Temperature in Fahrenheit                   <
>     DP     - Dew Point in Fahrenheit                     <
>     RH     - Relative Humidity in Percent                <
>     WIND   - Direction (from) and Speed in MPH           <
>     PRES   - Mean Sea Level Pressure (inches of Hg)      <
>     WCI    - Wind Chill Index                            <
>     VSB    - VISIBILITY IN MILES                         <
>     HX     - HEAT INDEX                                  <
>     TC     - TEMPERATURE IN CELSIUS                      <
>     VRB    - VARIABLE WIND DIRECTION                     <
>                                                          <
>>>>>>>>>>>>>>>>>>>>>>>>>>>> KEY <<<<<<<<<<<<<<<<<<<<<<<<<<<




USA.gov is the U.S. government's official web portal to all federal, state and local government web resources and services.